CAPE
1652 1583 1474 1526 1637 1569 1748 1937 1848 2019 2338 2179 2407 2499 2757 3049 3177 3199 3239 3280 3344 3293 3336 3415 3423 3411 3339 3524 3586 3371 3306 3420 3152 3286 3461 3456 3448 3306 3192 3187 3209 3172
1689 1641 1578 1529 1730 1885 2046 1907 2003 1996 2345 2498 2392 2611 2974 3105 3133 3043 3173 3196 3281 3169 3353 3314 3383 3410 3428 3266 3654 3475 3466 3236 3228 3474 3683 3566 3577 3423 3249 3312 3193 3213
1673 1658 1656 1548 1490 1573 1334 1680 1940 1991 2051 2102 2304 2655 2751 2802 2827 3014 3045 3140 3126 2971 3248 3376 3317 3452 3393 3507 3770 3620 3313 3445 3343 3331 3663 3818 3602 3435 3571 3054 3152 3167
1702 1685 1516 1386 1400 1489 1474 1733 1901 1892 1756 1990 2059 2131 2334 2329 2588 2809 2973 3026 3148 3198 3197 3252 3166 3180 3420 3496 3724 3544 3425 3632 3489 3597 3745 3719 3779 3659 3586 3545 3346 3224
1713 1706 1574 1546 1508 1678 1745 1743 1501 1643 1628 1698 1780 2001 2380 2525 2659 2589 2742 2954 3079 3138 3256 3271 3296 3239 3461 3523 3620 3558 3449 3571 3605 3671 3722 3693 3921 3882 3678 3735 3768 3615
1761 1799 1801 1754 1726 1894 1744 1653 1580 1590 1623 1574 1772 1767 1925 2331 2408 2401 2560 2610 2688 2741 2669 2894 3122 3120 3257 3454 3570 3498 3430 3295 3252 3489 3683 3489 3531 3521 3415 3564 3819 3728
1759 1855 1807 1743 1782 1834 1724 1690 1730 1721 1617 1603 1833 1760 1739 1949 2226 2358 2528 2575 2414 2586 2520 2803 3190 3145 3212 3394 3581 3670 3656 3719 3587 3411 3521 3494 3702 3826 3533 3620 3776 3780
1748 1739 1777 1741 1709 1730 1781 1762 1810 1848 1813 1811 1866 1876 1805 1750 2051 2144 2381 2475 2364 2573 2797 2848 3196 3421 3229 3247 3479 3621 3619 3609 3642 3641 3295 3577 3858 3919 3889 3809 3806 3911
1786 1875 1882 1878 1740 1748 1686 1647 1777 1835 1828 1857 1680 1682 1844 1723 1906 1924 2315 2598 2462 2574 2942 2920 3150 3153 3162 3231 3388 3607 3686 3522 3504 3686 3635 3630 3767 3832 3757 3892 3846 3819
1980 1928 1804 1802 1712 1729 1703 1637 1640 1755 1863 1776 1663 1624 1773 1847 1883 1987 2328 2720 2604 2732 2894 2889 2964 3007 3063 3205 3414 3560 3653 3756 3787 3812 3803 3725 3650 3666 3678 3826 3768 3824
1888 1870 1842 1812 1727 1688 1733 1680 1655 1670 1787 1735 1664 1608 1726 1888 2049 2116 2368 2695 2428 2580 2746 2843 2851 3000 3082 2936 3064 3246 3450 3458 3632 3821 3846 3816 3770 3773 3737 3811 3836 3683
1902 1821 1792 1791 1750 1736 1733 1724 1700 1680 1726 1756 1708 1709 1749 1801 2024 2118 2189 2488 2466 2496 2668 2867 2925 3026 3102 3034 2843 2983 3262 3271 3400 3662 3621 3748 3785 3781 3813 3869 3697 3810
1854 1832 1855 1798 1847 1786 1788 1792 1739 1697 1672 1745 1735 1764 1779 1796 1852 2110 2220 2319 2571 2576 2545 2787 2926 2951 3083 3138 3042 3065 3210 3338 3191 3407 3511 3573 3674 3575 3544 3611 3714 3688
1869 1892 1933 1934 1910 2005 1979 1844 1784 1739 1780 1766 1851 1841 1803 1806 1824 1918 2228 2287 2407 2548 2612 2722 2904 2892 3028 3129 3126 3077 3157 3244 3321 3294 3370 3477 3543 3560 3453 3376 3514 3586
2015 2000 2074 2107 2115 2234 2191 2065 1912 1876 1863 1882 1935 1926 1844 1865 1884 1878 2063 2264 2261 2489 2589 2617 2653 2735 2727 2936 3044 3109 3084 2997 3216 3334 3294 3337 3469 3459 3513 3598 3519 3428
2238 2206 2260 2336 2320 2519 2443 2289 2030 1982 1887 1953 2003 2004 1992 1977 1994 2007 2011 2132 2281 2454 2594 2601 2594 2639 2571 2237 2426 2888 3115 2958 3062 3311 3318 3236 3410 3571 3468 3486 3538 3491
2524 2551 2526 2478 2447 2458 2434 2415 2163 2092 2061 2130 2107 2091 2089 2176 2172 2096 2060 2069 2178 2273 2418 2456 2517 2526 2222 1981 1866 1892 2536 3086 3142 3300 3392 3370 3324 3488 3549 3412 3436 3549
2290 2395 2396 2498 2510 2452 2485 2397 2218 2152 2167 2239 2226 2178 2298 2239 2301 2196 2283 2136 2088 2188 2239 2354 2479 2209 2006 1830 1708 1657 1682 2502 2874 3035 3038 3232 3322 3261 3353 3401 3446 3434
2313 2520 2483 2452 2466 2433 2435 2442 2408 2334 2308 2323 2200 2195 2231 2370 2295 2200 2288 2315 2242 2393 2360 2309 2440 2169 1901 1738 1652 1588 1603 1729 2392 2792 2904 3038 3200 3334 3323 3418 3533 3491
2564 2498 2457 2492 2526 2517 2518 2489 2460 2416 2268 2133 2141 2242 2329 2400 2223 2281 2363 2507 2463 2465 2564 2516 2444 2262 1980 1760 1638 1602 1610 1615 2230 2486 2820 3022 3148 3212 3306 3336 3461 3556
2502 2489 2549 2586 2636 2576 2547 2522 2468 2440 2322 2210 2176 2271 2439 2462 2338 2312 2368 2444 2457 2359 2444 2510 2346 2140 2025 1825 1698 1648 1631 1668 1967 2453 2684 2988 3122 3256 3347 3298 3329 3502
2487 2588 2665 2725 2692 2602 2588 2583 2558 2592 2568 2462 2366 2346 2391 2371 2476 2369 2422 2493 2502 2419 2306 2296 2257 1769 1732 1709 1679 1657 1653 1662 1692 2430 2688 2796 3010 3216 3288 3376 3420 3451
2522 2609 2742 2773 2776 2697 2639 2602 2642 2689 2689 2650 2557 2467 2474 2493 2533 2501 2544 2583 2562 2488 2446 2397 2379 2032 1617 1482 1433 1462 1513 1548 1753 2284 2647 2834 2932 3093 3260 3338 3424 3556
2721 2731 2804 2775 2813 2829 2771 2698 2712 2733 2722 2708 2626 2517 2491 2583 2602 2603 2613 2608 2532 2536 2479 2566 2478 2346 1877 1727 1627 1527 1386 1491 2051 2343 2634 2836 2952 3141 3239 3356 3434 3018
3023 2998 2945 2919 3017 2954 2854 2885 2931 2922 2835 2893 2745 2644 2639 2758 2624 2648 2689 2712 2618 2526 2279 2307 2528 2391 2151 2104 2034 1938 1771 1759 2177 2345 2558 2756 2807 2987 3198 3266 3368 3088
3094 3162 3100 2982 3106 3068 3029 3101 3134 3039 3064 3058 2847 2704 2733 2787 2766 2722 2754 2792 2645 2485 2522 2553 2529 2535 2489 2409 2343 2243 2091 1942 2197 2381 2491 2651 2823 2753 2960 3221 3258 3398
Wind_Speed
10 9 8 7 5 4 4 4 7 7 7 8 7 7 8 9 9 10 11 12 13 15 15 15 15 14 14 13 13 13 14 14 14 13 13 13 13 14 13 13 12 11
9 9 11 9 8 6 4 5 7 7 7 7 8 8 9 9 9 9 11 12 12 14 14 14 13 13 13 12 11 12 12 13 14 11 11 13 13 13 14 14 13 11
10 10 10 8 6 2 1 4 7 8 9 8 8 9 10 10 9 9 10 10 11 11 11 11 11 10 10 9 8 9 10 11 11 10 9 10 11 12 13 13 12 12
11 11 11 9 7 5 4 6 8 10 10 9 8 9 10 10 9 8 9 8 9 9 9 8 8 8 7 6 5 6 6 7 7 6 6 6 7 9 10 11 11 11
12 13 13 12 10 8 7 6 5 8 8 8 9 10 10 10 9 9 9 8 8 8 7 6 6 5 4 3 3 3 3 3 3 3 3 4 4 5 7 7 8 10
16 16 15 14 12 10 8 6 6 7 8 8 8 10 10 9 9 8 8 7 7 7 7 6 5 4 2 1 1 1 1 1 0 1 1 1 3 2 3 4 6 7
16 16 15 15 12 10 8 8 9 9 9 9 11 10 10 9 7 7 7 7 7 7 6 5 4 3 3 3 2 1 1 1 2 2 1 1 1 1 1 2 3 5
16 17 17 16 13 11 9 9 10 10 10 11 10 10 11 9 7 7 7 7 7 6 5 4 4 3 3 4 3 2 2 4 3 4 2 1 2 1 0 1 1 2
17 18 18 16 12 12 9 9 10 10 11 10 10 11 11 10 8 7 8 8 7 7 6 5 5 4 4 4 4 3 3 3 5 5 4 3 3 1 0 2 2 2
18 19 17 15 13 13 10 9 11 11 12 11 11 12 12 11 9 7 8 9 8 8 7 7 6 6 5 5 3 3 4 5 6 6 5 4 3 1 1 3 3 3
15 17 16 14 13 14 11 10 11 12 13 12 12 12 12 12 10 9 9 10 10 8 8 7 6 6 6 5 4 4 4 5 6 7 7 5 3 3 3 4 4 3
15 15 15 13 13 13 13 12 13 13 14 14 13 12 12 11 10 11 11 11 10 9 8 7 7 7 7 6 5 5 6 6 7 8 8 7 5 4 4 5 5 3
14 14 16 16 16 16 18 16 15 14 14 14 14 13 12 11 10 10 12 12 11 10 8 8 8 7 8 8 7 6 7 8 8 9 9 9 7 5 5 6 5 4
13 15 17 18 20 21 20 18 17 16 16 16 16 13 12 11 11 11 13 13 11 10 9 9 8 8 9 9 9 9 9 9 10 10 9 9 8 6 5 6 5 4
18 18 19 21 22 23 22 20 18 18 18 18 17 15 15 13 13 13 13 13 11 10 9 9 7 7 9 10 11 10 11 11 11 11 10 8 7 6 6 6 6 5
21 22 22 22 23 23 22 21 20 19 19 17 16 16 16 17 15 14 13 12 11 10 9 9 8 9 11 13 13 12 12 13 13 12 11 8 7 6 5 5 6 5
24 24 24 23 23 23 22 20 19 20 20 18 17 17 16 17 16 14 13 13 11 10 9 8 9 10 13 15 14 14 13 13 13 12 11 9 6 4 5 6 7 6
22 22 22 22 24 23 22 21 20 20 19 18 18 17 18 17 15 14 14 13 12 10 8 8 9 10 15 15 15 16 15 12 11 11 10 9 6 3 4 7 7 7
24 23 22 22 22 22 22 22 21 19 18 18 16 17 18 16 14 14 13 12 11 10 8 9 9 13 16 15 16 17 17 14 10 9 8 7 5 3 3 5 7 7
24 23 22 21 23 24 23 21 20 18 17 18 18 18 16 15 13 12 12 11 10 10 10 9 9 14 17 16 16 17 17 15 10 8 6 4 2 2 4 4 5 7
22 20 20 21 23 23 22 21 20 19 17 17 16 15 14 14 12 11 11 10 10 10 10 9 9 13 17 16 16 17 17 16 11 8 5 3 1 2 3 4 6 7
21 19 20 21 22 22 20 19 19 18 16 16 15 14 14 13 12 11 10 10 10 9 9 8 9 14 17 17 17 17 19 15 11 8 5 2 1 2 3 6 6 7
20 18 19 19 20 19 18 17 17 16 16 17 14 13 13 12 11 11 12 11 10 9 8 9 10 15 17 17 18 19 20 14 12 9 6 3 2 2 4 5 7 7
19 18 18 18 18 16 16 17 17 17 16 16 14 13 12 12 13 14 13 12 10 9 9 9 10 16 20 19 20 23 20 16 14 11 7 6 4 4 5 7 7 5
20 18 17 17 16 16 17 17 17 17 17 17 16 15 15 16 16 15 14 14 12 10 12 10 11 15 22 20 21 23 20 15 14 12 9 7 7 6 7 8 9 9
19 18 17 16 16 17 18 18 19 19 17 17 17 17 17 16 16 15 14 15 15 13 14 12 12 14 21 22 23 23 22 16 14 12 9 9 9 8 9 10 10 11
Wind_Direction
202 192 191 209 214 211 204 194 179 168 159 147 143 140 134 136 141 134 124 121 113 109 107 105 103 102 103 101 99 100 100 97 97 94 89 90 91 92 96 98 100 102
200 192 197 210 220 224 205 196 192 181 171 160 151 148 144 149 148 140 129 122 118 111 110 108 105 102 101 102 97 95 97 96 93 95 90 86 90 91 92 94 98 101
195 192 198 209 217 232 133 183 191 187 178 163 157 153 154 159 157 150 140 132 128 122 118 116 112 108 104 101 99 95 93 89 89 90 87 87 90 92 96 98 99 94
189 188 192 196 203 214 202 199 203 199 187 183 166 162 164 172 169 156 151 144 144 141 136 128 119 118 112 105 98 101 90 87 87 88 86 93 91 93 96 99 101 100
190 189 192 200 204 210 214 204 202 207 196 187 183 177 181 184 181 163 161 159 154 150 153 143 139 133 136 130 102 106 93 90 69 67 88 97 99 96 99 101 99 99
190 191 197 205 209 213 210 203 209 211 210 203 195 190 187 191 183 168 163 158 156 149 145 148 149 150 157 166 160 119 115 118 304 21 347 95 114 111 119 106 100 99
194 196 199 205 207 207 201 201 210 214 213 205 208 200 201 200 194 178 172 167 153 155 145 157 169 177 205 229 249 257 260 251 260 280 293 261 225 129 116 113 104 105
195 197 201 204 205 203 202 205 213 220 220 218 215 214 213 208 204 191 185 177 166 162 167 170 192 213 222 241 256 274 290 259 266 285 282 245 242 213 173 207 211 145
204 203 206 209 208 204 201 203 210 218 224 222 216 215 219 215 211 199 196 193 182 181 189 196 210 223 235 246 255 279 287 280 273 281 286 271 267 261 189 221 235 222
215 210 212 211 208 203 203 205 210 217 223 222 221 217 223 225 220 210 204 203 196 198 205 212 225 235 247 261 276 280 283 291 288 285 277 263 254 240 219 238 240 234
224 221 219 216 212 208 208 213 214 217 222 225 223 218 219 226 226 218 209 208 204 207 213 222 234 252 265 277 278 280 290 291 293 290 285 272 253 227 221 232 240 237
232 229 227 225 222 217 218 219 220 221 224 224 224 221 220 220 223 219 214 213 213 217 224 231 245 260 278 289 297 294 290 294 291 291 289 279 262 233 222 233 236 237
238 236 232 231 229 226 223 223 222 223 224 223 223 221 222 219 216 215 217 219 221 226 233 244 256 270 282 291 295 294 296 297 294 291 289 280 268 248 225 225 236 238
238 238 235 232 231 231 229 228 225 224 222 221 222 222 219 217 213 216 220 223 225 230 238 249 263 277 288 292 292 296 297 299 296 292 290 284 273 260 237 224 230 234
233 234 234 236 235 235 234 233 230 226 224 223 222 219 216 215 212 213 219 225 228 232 240 252 264 276 279 284 289 299 304 305 302 300 296 285 275 262 247 235 231 229
233 231 233 237 238 239 239 236 231 227 226 224 222 220 217 216 213 213 217 227 233 236 242 249 258 263 280 301 295 293 304 302 299 298 298 291 277 256 233 225 225 228
234 233 234 236 236 236 236 235 231 226 223 221 219 217 217 219 218 217 220 224 230 235 246 253 258 264 293 298 309 315 306 302 300 297 296 297 292 262 221 211 213 225
235 235 233 233 234 235 237 235 231 228 225 224 222 221 221 222 221 220 220 221 223 231 245 257 261 277 294 302 310 319 316 306 297 292 293 298 297 281 224 211 208 215
237 238 238 235 234 234 233 233 232 230 229 227 225 223 223 225 222 222 223 225 227 236 248 262 262 281 296 303 309 315 322 317 299 293 295 298 296 282 225 208 205 204
240 240 238 235 234 233 232 231 231 230 228 226 225 228 229 228 228 226 227 232 237 244 250 257 266 277 298 304 307 314 320 313 302 305 303 303 300 241 216 196 188 188
242 242 239 235 234 234 231 229 229 228 230 230 230 234 234 232 228 226 227 234 243 252 255 258 260 279 290 302 306 312 316 308 293 298 299 294 265 212 194 187 181 182
245 242 237 235 235 234 232 232 233 235 237 236 232 228 225 224 224 226 231 241 251 260 260 259 257 282 290 298 304 308 309 291 287 292 304 293 246 212 198 199 189 180
245 244 239 236 236 235 235 236 236 237 235 233 229 225 223 225 227 233 236 240 250 258 262 253 251 275 292 297 298 301 292 283 284 282 286 297 254 219 209 203 199 196
245 244 241 238 236 236 235 233 232 229 230 229 225 223 221 224 228 231 238 243 252 260 263 258 256 271 290 294 297 299 299 286 278 281 285 279 253 231 225 221 216 225
243 243 240 237 233 231 229 228 227 226 225 225 225 225 225 228 233 236 241 245 251 256 263 267 255 266 288 295 300 301 299 282 279 277 279 272 255 237 239 237 230 240
237 239 237 233 229 226 224 221 221 223 226 228 229 231 232 234 239 241 245 245 249 253 254 264 262 259 275 295 297 301 308 286 276 277 277 271 260 253 247 249 248 239